GW3217 Weather Reports


Display with metric or nautical units.
time (UTC)temp
F
wind
direction
speed
MPH
gust
MPH
rain 1hr
in
rain 24hr
in
rain mn
in
humidity
%
barometer
mb
20260504060155 44 58 1.0 1.0 0.00 0.00 0.00 58 1014.2
20260504050623 45 114 0.0 0.0 0.00 0.00 0.00 57 1014.0
20260504050121 45 87 1.0 1.0 0.00 0.00 0.00 55 1014.0
20260504045618 45 100 0.0 0.0 0.00 0.00 0.00 55 1013.9
20260504045112 46 99 1.0 1.0 0.00 0.00 0.00 54 1013.7
20260504044611 45 87 1.0 1.0 0.00 0.00 0.00 55 1014.0
20260504044107 45 99 1.0 1.0 0.00 0.00 0.00 56 1014.0
20260504043604 45 98 0.0 0.0 0.00 0.00 0.00 56 1014.0
20260504043101 45 95 0.0 1.0 0.00 0.00 0.00 56 1013.9
20260504042558 45 99 0.0 1.0 0.00 0.00 0.00 55 1013.9
20260504042055 45 98 0.0 1.0 0.00 0.00 0.00 55 1013.7
20260504041550 45 84 1.0 1.0 0.00 0.00 0.00 55 1013.9
20260504041042 46 100 0.0 1.0 0.00 0.00 0.00 54 1013.9
20260504040539 46 101 0.0 1.0 0.00 0.00 0.00 54 1013.8
20260504040036 46 99 0.0 1.0 0.00 0.00 0.00 54 1013.8
20260504035532 46 104 1.0 1.0 0.00 0.00 0.00 53 1013.9
20260504035029 46 89 1.0 1.0 0.00 0.00 0.00 53 1013.9
20260504034527 45 101 1.0 1.0 0.00 0.00 0.00 56 1013.8
20260504034023 46 87 1.0 1.0 0.00 0.00 0.00 54 1013.9
20260504033521 46 85 0.0 1.0 0.00 0.00 0.00 54 1013.9
20260504033019 46 99 0.0 1.0 0.00 0.00 0.00 54 1013.8
20260504032515 46 97 0.0 1.0 0.00 0.00 0.00 53 1014.0
20260504032012 46 79 1.0 1.0 0.00 0.00 0.00 54 1013.8
20260504031509 46 89 1.0 1.0 0.00 0.00 0.00 55 1013.7
20260504031005 46 93 0.0 1.0 0.00 0.00 0.00 54 1013.8
20260504030503 46 93 0.0 1.0 0.00 0.00 0.00 53 1013.8
20260504025958 46 91 0.0 1.0 0.00 0.00 0.00 53 1013.7
20260504025456 46 90 1.0 1.0 0.00 0.00 0.00 54 1013.7
20260504024952 46 92 0.0 1.0 0.00 0.00 0.00 54 1013.8
20260504024449 45 98 0.0 0.0 0.00 0.00 0.00 54 1013.9
20260504023946 46 104 0.0 0.0 0.00 0.00 0.00 54 1013.6
20260504023443 45 113 0.0 1.0 0.00 0.00 0.00 54 1013.9
20260504022938 45 104 0.0 0.0 0.00 0.00 0.00 53 1013.7
20260504022435 45 98 0.0 0.0 0.00 0.00 0.00 54 1013.8
20260504021932 45 111 0.0 0.0 0.00 0.00 0.00 56 1013.8
20260504021429 45 94 0.0 0.0 0.00 0.00 0.00 54 1013.8
20260504020926 46 113 0.0 0.0 0.00 0.00 0.00 56 1013.7
20260504020423 46 110 0.0 0.0 0.00 0.00 0.00 56 1013.8
20260504015920 46 110 0.0 0.0 0.00 0.00 0.00 55 1013.5
20260504015415 46 112 0.0 0.0 0.00 0.00 0.00 53 1013.8
20260504014911 47 112 0.0 0.0 0.00 0.00 0.00 53 1013.6
20260504014407 46 106 1.0 1.0 0.00 0.00 0.00 51 1013.6
20260504013904 46 88 0.0 1.0 0.00 0.00 0.00 51 1013.8
20260504013402 46 99 0.0 1.0 0.00 0.00 0.00 51 1013.5
20260504012858 46 92 0.0 1.0 0.00 0.00 0.00 51 1013.6
20260504012356 46 116 0.0 0.0 0.00 0.00 0.00 51 1013.6
20260504011848 46 113 0.0 0.0 0.00 0.00 0.00 53 1013.7
20260504011345 47 103 0.0 0.0 0.00 0.00 0.00 48 1013.5
20260504010841 47 101 0.0 1.0 0.00 0.00 0.00 48 1013.3
20260504010337 47 96 0.0 1.0 0.00 0.00 0.00 48 1013.5
20260504005833 48 104 0.0 0.0 0.00 0.00 0.00 50 1013.3
20260504005330 48 87 0.0 0.0 0.00 0.00 0.00 48 1013.2
20260504004828 48 110 0.0 1.0 0.00 0.00 0.00 48 1013.2
20260504004325 48 112 0.0 0.0 0.00 0.00 0.00 50 1013.2
20260504003821 49 101 0.0 0.0 0.00 0.00 0.00 47 1013.1
20260504003319 49 101 0.0 1.0 0.00 0.00 0.00 45 1013.2
20260504002815 49 112 0.0 0.0 0.00 0.00 0.00 45 1012.6
20260504002312 50 112 0.0 1.0 0.00 0.00 0.00 45 1012.9
20260504001809 50 114 0.0 0.0 0.00 0.00 0.00 44 1012.7
20260504001301 50 112 0.0 0.0 0.00 0.00 0.00 44 1012.9
20260504000758 51 113 0.0 1.0 0.00 0.00 0.00 43 1012.9
20260504000254 51 115 1.0 2.0 0.00 0.00 0.00 41 1012.6
20260503235753 51 113 2.0 2.0 0.00 0.00 0.00 40 1012.7
20260503235250 52 97 1.0 1.0 0.00 0.00 0.00 41 1012.3
20260503234747 52 198 2.0 3.0 0.00 0.00 0.00 38 1012.4
20260503234245 52 94 1.0 2.0 0.00 0.00 0.00 41 1012.3
20260503233742 52 86 1.0 1.0 0.00 0.00 0.00 39 1012.3
20260503233238 53 101 1.0 1.0 0.00 0.00 0.00 39 1012.0
20260503232735 53 110 0.0 0.0 0.00 0.00 0.00 40 1012.1
20260503232232 53 91 2.0 2.0 0.00 0.00 0.00 37 1012.2
20260503231730 53 187 1.0 1.0 0.00 0.00 0.00 36 1011.9
20260503231227 53 79 2.0 2.0 0.00 0.00 0.00 34 1012.0
20260503230723 53 117 2.0 4.0 0.00 0.00 0.00 35 1011.9
20260503230220 53 278 2.0 2.0 0.00 0.00 0.00 35 1012.0
20260503225718 54 315 4.0 7.0 0.00 0.00 0.00 33 1012.0
20260503225217 55 111 0.0 1.0 0.00 0.00 0.00 35 1011.8
20260503224715 55 104 3.0 3.0 0.00 0.00 0.00 33 1012.0
20260503224212 55 116 1.0 1.0 0.00 0.00 0.00 35 1011.6
20260503223710 56 328 2.0 2.0 0.00 0.00 0.00 31 1011.7
20260503223207 57 154 5.0 9.0 0.00 0.00 0.00 30 1011.3
20260503222703 56 114 0.0 1.0 0.00 0.00 0.00 35 1011.7
20260503222201 56 179 5.0 7.0 0.00 0.00 0.00 30 1011.7
20260503221659 57 10 4.0 6.0 0.00 0.00 0.00 31 1011.5
20260503221156 58 119 2.0 2.0 0.00 0.00 0.00 30 1011.6
20260503220653 57 75 2.0 2.0 0.00 0.00 0.00 31 1011.6
20260503220149 57 348 3.0 4.0 0.00 0.00 0.00 30 1011.7
20260503215647 59 20 2.0 2.0 0.00 0.00 0.00 31 1011.7
20260503215143 57 330 2.0 2.0 0.00 0.00 0.00 32 1011.6
20260503214642 57 111 2.0 3.0 0.00 0.00 0.00 31 1011.6
20260503214137 59 76 3.0 6.0 0.00 0.00 0.00 31 1011.4
20260503213632 58 175 1.0 2.0 0.00 0.00 0.00 36 1011.5
20260503213128 59 119 1.0 1.0 0.00 0.00 0.00 32 1011.5
20260503212626 59 19 0.0 1.0 0.00 0.00 0.00 37 1011.3
20260503212123 58 39 1.0 2.0 0.00 0.00 0.00 34 1011.6
20260503211621 56 271 2.0 6.0 0.00 0.00 0.00 37 1011.5
20260503211116 60 126 0.0 1.0 0.00 0.00 0.00 36 1011.5
20260503210612 59 12 4.0 6.0 0.00 0.00 0.00 31 1011.5
20260503210108 59 53 4.0 4.0 0.00 0.00 0.00 33 1011.5
20260503205604 59 304 4.0 7.0 0.00 0.00 0.00 33 1011.6
20260503205101 59 274 3.0 4.0 0.00 0.00 0.00 32 1011.5
20260503204558 58 110 1.0 2.0 0.00 0.00 0.00 36 1011.7
20260503204056 59 306 2.0 4.0 0.00 0.00 0.00 36 1011.4
20260503203552 60 89 2.0 3.0 0.00 0.00 0.00 36 1011.6
20260503203049 59 99 3.0 4.0 0.00 0.00 0.00 34 1011.6
20260503202547 56 266 5.0 7.0 0.00 0.00 0.00 34 1011.6
20260503202044 56 121 2.0 2.0 0.00 0.00 0.00 38 1011.7
20260503201543 57 292 2.0 2.0 0.00 0.00 0.00 38 1011.8
20260503201039 56 269 5.0 6.0 0.00 0.00 0.00 36 1011.6
20260503200535 56 192 5.0 7.0 0.00 0.00 0.00 38 1011.8
20260503200033 55 87 1.0 2.0 0.00 0.00 0.00 36 1011.8
20260503195530 55 100 4.0 4.0 0.00 0.00 0.00 39 1011.9
20260503195026 56 354 2.0 2.0 0.00 0.00 0.00 40 1011.6
20260503194524 55 8 2.0 3.0 0.00 0.00 0.00 40 1012.0
20260503194023 53 125 1.0 1.0 0.00 0.00 0.00 41 1012.0
20260503193520 52 97 1.0 1.0 0.00 0.00 0.00 44 1012.0
20260503193015 54 125 0.0 1.0 0.00 0.00 0.00 41 1012.1
20260503192512 51 111 1.0 1.0 0.00 0.00 0.00 43 1012.2
20260503192008 53 13 7.0 11.0 0.00 0.00 0.00 39 1012.2
20260503191505 53 177 2.0 3.0 0.00 0.00 0.00 43 1012.5
20260503191001 53 28 2.0 2.0 0.00 0.00 0.00 43 1012.1
20260503190459 52 59 2.0 3.0 0.00 0.00 0.00 42 1011.9
20260503185956 51 128 2.0 3.0 0.00 0.00 0.00 42 1012.0
20260503185452 53 71 3.0 3.0 0.00 0.00 0.00 41 1012.2
20260503184951 54 258 5.0 9.0 0.00 0.00 0.00 41 1012.5
20260503184448 53 55 2.0 2.0 0.00 0.00 0.00 42 1012.3
20260503183944 52 101 1.0 1.0 0.00 0.00 0.00 43 1012.1
20260503183441 52 271 2.0 3.0 0.00 0.00 0.00 41 1012.4
20260503182938 53 356 2.0 2.0 0.00 0.00 0.00 41 1012.3
20260503182437 56 120 1.0 1.0 0.00 0.00 0.00 40 1012.5
20260503181934 55 347 1.0 3.0 0.00 0.00 0.00 40 1012.4
20260503181431 53 141 3.0 6.0 0.00 0.00 0.00 41 1012.4
20260503180927 53 105 2.0 2.0 0.00 0.00 0.00 42 1012.2
20260503180426 51 115 2.0 3.0 0.00 0.00 0.00 44 1012.4
20260503175922 52 124 1.0 2.0 0.00 0.00 0.00 42 1012.4
20260503175420 50 267 9.0 14.0 0.00 0.00 0.00 42 1012.5
20260503174915 50 357 3.0 4.0 0.00 0.00 0.00 43 1012.4
20260503174414 53 353 5.0 8.0 0.00 0.00 0.00 41 1012.4
20260503173908 50 133 3.0 4.0 0.00 0.00 0.00 44 1012.5
20260503173405 49 268 7.0 10.0 0.00 0.00 0.00 44 1012.4
20260503172902 49 78 4.0 6.0 0.00 0.00 0.00 44 1012.7
20260503172359 50 250 4.0 6.0 0.00 0.00 0.00 45 1012.5
20260503171855 50 199 5.0 7.0 0.00 0.00 0.00 41 1012.5
20260503171352 51 313 5.0 8.0 0.00 0.00 0.00 39 1012.5
20260503170850 50 79 3.0 4.0 0.00 0.00 0.00 44 1012.4
20260503170346 51 134 0.0 1.0 0.00 0.00 0.00 42 1012.4
20260503150738 45 56 4.0 6.0 0.00 0.00 0.00 53 1012.8
20260503150234 46 125 0.0 0.0 0.00 0.00 0.00 55 1012.7
20260503140159 45 250 5.0 9.0 0.00 0.00 0.00 55 1012.8
20260503131129 42 105 1.0 2.0 0.00 0.00 0.00 64 1013.0
20260503130626 43 48 4.0 6.0 0.00 0.00 0.00 63 1013.1
20260503130124 42 62 2.0 2.0 0.00 0.00 0.00 65 1013.2
20260503110516 35 94 0.0 1.0 0.00 0.00 0.00 78 1012.6
20260503090403 37 147 1.0 1.0 0.00 0.00 0.00 73 1012.2
20260503081329 37 208 2.0 2.0 0.00 0.00 0.00 71 1012.2
20260503080826 37 269 2.0 2.0 0.00 0.00 0.00 71 1012.2
20260503080323 37 199 1.0 2.0 0.00 0.00 0.00 71 1012.1
20260503072759 38 115 1.0 1.0 0.00 0.00 0.00 70 1012.5
20260503072256 38 113 1.0 2.0 0.00 0.00 0.00 71 1012.2
20260503071752 38 166 1.0 1.0 0.00 0.00 0.00 70 1012.6
20260503071250 38 105 0.0 0.0 0.00 0.00 0.00 71 1012.3
20260503070746 38 176 1.0 2.0 0.00 0.00 0.00 70 1012.5
20260503070244 38 163 1.0 2.0 0.00 0.00 0.00 70 1012.6